140  
ASUS41 KPHI 230512  
RWRPHI  
 
REGIONAL WEATHER ROUNDUP  
NATIONAL WEATHER SERVICE MOUNT HOLLY NJ  
100 AM EDT SAT SEP 23 2017  
 
NOTE: "FAIR" INDICATES FEW OR NO CLOUDS BELOW 12,000 FEET WITH NO  
SIGNIFICANT WEATHER AND/OR S TO VISIBILITY
.  
 
* = STATION DOES NOT REPORT PRECIPITATION (E.G. RAIN, SNOW, ETC.)  
OR FOG.
 
 
NJZ015>026-230600-  
SOUTHERN NEW JERSEY  
 
CITY SKY/WX TMP DP RH WIND PRES REMARKS
 
POMONA CLEAR 68 61 78 NW5 29.98R  
MILLVILLE MOCLDY 73 60 63 N8 29.99R  
WRIGHTSTOWN CLEAR 67 57 68 NW7 29.96S  
MOUNT HOLLY CLEAR 68 59 73 N6 29.99S  
TRENTON CLEAR 71 55 56 NW7 30.00R  
 

 
NJZ001>014-230600-  
NORTHERN NEW JERSEY  
 
CITY SKY/WX TMP DP RH WIND PRES REMARKS
 
SUSSEX CLEAR 59 59 100 CALM 30.04S  
ANDOVER* N/A 59 58 96 CALM 30.05S  
MORRISTOWN CLEAR 70 52 52 N6 30.01S  
NEWARK PTCLDY 73 54 51 N12 29.99R  
TETERBORO CLEAR 73 55 53 N10G17 29.98R  
CALDWELL CLEAR 69 54 58 CALM 30.01S  
ALLAIRE* PTCLDY 70 56 61 NW8 29.99R  
TOMS RIVER* CLEAR 69 57 65 N6 29.99R  
 

 
PAZ043-044-047-054-055-060>062-066>071-230600-  
EASTERN PENNSYLVANIA  
 
CITY SKY/WX TMP DP RH WIND PRES REMARKS
 
PHILADELPHIA MOCLDY 72 54 53 NW8 30.01R  
NORTH PHILA CLEAR 71 57 61 N7 30.01S  
BLUE BELL* MOCLDY 64 54 68 CALM 30.03S  
DOYLESTOWN CLEAR 67 53 61 N5 30.02S  
QUAKERTOWN* CLEAR 66 50 55 N5 30.04S  
PERKASIE* FAIR 64 50 59 CALM 30.04S  
POTTSTOWN CLEAR 62 56 80 CALM 30.05R  
LANCASTER CLEAR 64 57 78 W5 30.04S  
COATESVILLE CLEAR 68 54 60 N7 30.05S  
READING CLEAR 63 58 83 CALM 30.03S  
ALLENTOWN CLEAR 63 55 75 CALM 30.04S  
MOUNT POCONO CLEAR 61 46 57 N7 30.10S  
HAZLETON CLEAR 64 50 59 N5 30.13S  
LEHIGHTON FAIR 57 52 82 CALM 30.06F  
WILKES BARRE CLEAR 58 50 75 E5 30.09S  
 

 
DEZALL-MDZ008-012-015-019-020-230600-  
DELAWARE AND EASTERN MARYLAND  
 
CITY SKY/WX TMP DP RH WIND PRES REMARKS
 
WILMINGTON CLEAR 66 55 67 NW7 30.02R  
DOVER CLEAR 65 58 78 N8 29.98S  
GEORGETOWN CLEAR 68 62 81 CALM 29.99S  
EASTON CLEAR 69 64 86 CALM 30.03S  
ABERDEEN CLEAR 68 57 69 N6 30.01S  
PATUXENT CLEAR 67 65 93 W6 30.00S  
OCEAN CITY CLEAR 66 63 90 NW7 29.98S  
WALLOPS ISLAND CLEAR 70 65 84 W8 29.99S  
CAMBRIDGE CLEAR 70 66 88 NW6 29.99F  
SALISBURY CLEAR 65 64 97 NW3 29.98S  
 

 
PAZ001-021-NYZ056-072-MDZ011-DCZ001-230600-  
OTHER NEARBY LOCATIONS  
 
CITY SKY/WX TMP DP RH WIND PRES REMARKS
 
HARRISBURG PTCLDY 64 60 87 NW7 30.04S  
STATE COLLEGE PTCLDY 62 55 79 CALM 30.11F  
WILLIAMSPORT CLEAR 58 55 90 NW3 30.08S  
BINGHAMTON CLEAR 59 57 93 W5 30.11S  
NEW YORK CITY CLEAR 73 56 54 VRB6 30.02R  
BALTIMORE CLOUDY 63 62 97 NW3 30.01S  
WASHINGTON DC MOCLDY 70 65 84 N7 30.02S  
 

 
 
 
CLICK HERE TO GO TO PREVIOUS BULLETINS.

The Nexlab PA Page
The Nexlab NJ Page
The Nexlab DE Page
The Nexlab MD Page Main Text Page